Vorticity
nan nan nan nan nan nan nan nan nan nan nan nan nan nan nan nan nan nan nan nan nan nan
nan 8 8 8 7 8 8 10 10 9 8 9 9 9 8 7 8 8 9 11 9 nan
nan 7 8 8 9 8 9 9 9 9 9 9 10 9 8 7 9 8 9 11 9 nan
nan 9 8 7 8 10 9 9 9 9 10 10 9 9 8 8 9 9 9 9 12 nan
nan 9 8 7 8 10 9 9 9 9 9 9 9 9 9 9 9 10 10 10 11 nan
nan 8 8 7 8 9 10 9 9 9 9 9 9 9 9 10 9 10 10 11 9 nan
nan 8 9 9 9 9 8 9 8 9 9 9 9 9 9 10 9 10 11 10 10 nan
nan 8 9 10 9 10 9 9 9 8 9 10 9 9 11 10 10 10 10 9 10 nan
nan 11 10 8 10 9 9 10 10 9 9 8 10 14 11 7 9 9 10 10 10 nan
nan 10 10 10 9 9 10 11 9 7 10 11 14 14 9 4 8 10 10 10 9 nan
nan 10 10 11 9 10 14 10 8 12 10 11 15 13 9 5 4 9 11 11 9 nan
nan 10 10 10 8 11 10 9 10 12 12 10 15 15 9 7 7 11 10 9 10 nan
nan 11 9 9 7 8 11 10 11 11 13 11 13 15 11 5 7 11 11 10 13 nan
nan nan nan nan nan nan nan nan nan nan nan nan nan nan nan nan nan nan nan nan nan nan
CAPE
954 987 869 812 655 518 387 312 258 308 411 401 240 144 340 436 429 327 189 379 395 287
1484 1308 1173 976 691 465 378 408 369 405 422 368 286 241 407 378 448 319 266 484 239 48
1229 1679 1457 1238 1056 647 464 414 599 505 544 371 298 335 266 65 97 360 402 460 260 17
1655 1553 1593 1426 1200 924 751 728 767 695 642 398 265 189 115 44 137 769 799 564 240 36
1933 1700 1688 1531 1248 1021 922 831 927 877 813 643 504 347 215 116 574 650 791 311 89 5
2006 1819 1699 1574 1225 1201 1141 1022 1137 855 917 831 790 788 594 392 516 1010 858 201 71 3
2189 2061 1918 1749 1293 1224 1308 1242 1207 998 648 623 609 635 589 537 534 585 533 214 20 0
2248 2193 2018 1767 1321 1226 1322 1387 1314 923 379 400 374 531 517 475 480 473 523 115 12 0
2215 2180 1883 1667 1386 1258 1199 1376 1188 801 669 382 529 599 480 522 473 362 292 16 1 0
2094 1946 1761 1634 1478 1409 1274 857 885 595 162 271 155 451 285 367 292 199 11 0 0 0
2059 1853 1387 1368 1429 1306 1195 832 513 288 13 23 39 70 71 188 68 109 1 0 0 0
2076 1881 1357 1104 974 1044 869 529 352 225 88 29 53 1 0 42 172 59 5 0 0 0
1950 1792 1390 1062 787 686 545 689 252 326 149 102 72 0 0 17 71 0 0 0 0 0
1864 1713 1450 1022 881 715 688 606 364 239 120 110 49 0 0 0 0 0 0 0 0 0